Location: Newport
(44.6370°N, 124.0520°W)
Time: 22:50:14
(UTC-07:00)

ISS - Pass Details

Date: 08 October 2017
Orbit: 401 x 408 km, 51.6° (Epoch: 17 October)

Event Time Altitude Azimuth Distance (km) Brightness Sun altitude
Rises 21:30:43 0° 299° (WNW) 2,329 1.2 -30.1°
Reaches altitude 10° 21:32:49 10° 297° (WNW) 1,467 -0.1 -30.4°
Enters shadow 21:33:13 13° 296° (WNW) 1,302 -0.4 -30.5°
